星链-2179 (STARLINK-2179 )

导读

STARLINK-2179是美国太空探索技术公司星链计划中的一颗卫星,于2021年3月4日发射入轨。星链计划旨在构建全球卫星互联网星座,为全球偏远地区等提供低延迟宽带互联网服务。该卫星属于星链星座的组网卫星,补充完善了星座的覆盖范围与服务能力,推动全球卫星互联网络建设。

Basic Information
目录编号:
47761
目录名称:
STARLINK-2179
国际标识:
2021-017AR
轨道中心:
EARTH
卫星名称:
星链-2179
卫星全名:
星链-2179 (STARLINK-2179 )
卫星状态:
已陨落 最后检测时间 2025-01-20
发射日期:
2021-03-04 UTC
国别 :
美国 (US)
星等 :
--
Orbit Information
数据来源 国际轨道数据
星历时间: 2025-01-21T05:23:50+0800
轨道信息已过期513天
半长轴: 6527.166km
偏心率: 0.0005538
轨道倾角: 53.026°
近地点辐角 257.826°
升交点赤经 237.256°
平近点角 196.661°
近地点: 145.416km
远地点: 152.646km
周期: 87.467分钟
每日圈数: 16.463261
Detailed Information
固有亮度:
5
最大亮度:
2.5
卫星平台:
Starlink V1.0
覆盖范围:
全球
运营商:
太空探索技术公司
运营商所在国:
美国
制造商(研发单位):
太空探索技术公司
制造商所在国:
美国
使用方式:
暂无
Satellite Introduction
星链(Starlink)计划是由太空探索技术公司(SpaceX)提出的一个巨型低轨卫星互联网星座项目,计划在2019年至2024年间在太空搭建由约1.2万颗卫星组成的“星链”网络,其中1584颗将部署在地球上空550千米处的近地轨道,并从2020年开始工作。该卫星仍在工作。